Location: ?????????
(54.7630°N, 39.4991°E)
Time: 01:34:16
(UTC+00:00)

SL-16 R/B - Pass Details

Date: 14 April 2026
Orbit: 841 x 845 km, 71.0° (Epoch: 20 May)

Event Time Altitude Azimuth Distance (km) Brightness Sun altitude
Rises 23:31:08 0° 326° (NW) 3,416 5.6 -20.1°
Reaches altitude 10° 23:33:39 10° 331° (NNW) 2,478 4.9 -19.9°
Maximum altitude 23:39:15 57° 50° (NE) 996 2.9 -19.4°
Drops below altitude 10° 23:44:50 10° 128° (SE) 2,466 4.6 -18.9°
Sets 23:47:19 0° 133° (SE) 3,397 5.3 -18.7°
